Location: Asheville, NC
(35.6000°N, 82.5500°W)
Time: 20:12:45
(UTC-04:00)

N. Korean satellite - Pass Details

Date: 09 December 2017
Orbit: 458 x 514 km, 97.2° (Epoch: 24 April)

Event Time Altitude Azimuth Distance (km) Brightness Sun altitude
Rises 18:16:09 0° 157° (SSE) 2,557 10.2 -11.8°
Reaches altitude 10° 18:18:13 10° 153° (SSE) 1,689 9.2 -12.2°
Maximum altitude 18:21:46 53° 76° (ENE) 623 6.7 -12.9°
Drops below altitude 10° 18:25:24 10° 359° (N) 1,729 9.2 -13.6°
Sets 18:27:33 0° 354° (N) 2,625 10.2 -14.0°
